Charleston, SC

10:31 AM EDT on April 29, 2017 (GMT -0400)
Charleston Executive

Weather History for KJZI - February, 2014

Change the Weather History Date:

Thursday, February 20, 2014

  Actual Average (KCHS) Record (KCHS)
Temperature  
Mean Temperature 67 °F -  
Max Temperature 77 °F 64 °F 82 °F (1991)
Min Temperature 57 °F 41 °F 18 °F (2015)
Cooling Degree Days 2    
Growing Degree Days 17 (Base 50)    
Moisture  
Dew Point 63 °F    
Average Humidity 94    
Maximum Humidity 100    
Minimum Humidity 73    
Precipitation  
Precipitation 0.00 in - - ()
Sea Level Pressure  
Sea Level Pressure 30.14 in    
Wind  
Wind Speed 7 mph (SSW)    
Max Wind Speed 17 mph    
Max Gust Speed 26 mph    
Visibility 7 miles    
Events Fog    
Averages and records for this station are not official NWS values.
T = Trace of Precipitation, MM = Missing Value Source: NWS Daily Summary

Daily Weather History Graph

Daily Weather History Graph

Search for Another Location

Airport or City:

Trip Planner

Search our weather history database for the weather conditions in past years. The results will help you decide how hot, cold, wet, or windy it might be!

Date:

Astronomy

Feb. 20, 2014 Rise Set
Actual Time 6:57 AM EST 6:09 PM EST
Civil Twilight 6:32 AM EST 6:34 PM EST
Nautical Twilight 6:04 AM EST 7:03 PM EST
Astronomical Twilight 5:35 AM EST 7:32 PM EST
Moon 11:41 PM EST (2/20) 9:59 AM EST (2/20)
Length of Visible Light 12h 01m
Length of Day
11h 12m
Waning Gibbous, 71% of the Moon is Illuminated
Feb 20
Waning Gibbous
Feb 22
Last Quarter
Mar 1
New
Mar 8
First Quarter
Mar 16
Full

Hourly Weather History & Observations

Time (EST) Temp. Dew Point Humidity Pressure Visibility Wind Dir Wind Speed Gust Speed Precip Events Conditions
12:15 AM 62.6 °F 57.2 °F 82% 30.13 in 10.0 mi SW 8.1 mph - 0.00 in   Clear
12:35 AM 62.6 °F 59.0 °F 88% 30.13 in 10.0 mi SW 6.9 mph - 0.00 in   Clear
12:55 AM 62.6 °F 60.8 °F 94% 30.13 in 10.0 mi SW 4.6 mph - 0.00 in   Clear
1:15 AM 62.6 °F 60.8 °F 94% 30.13 in 10.0 mi WSW 6.9 mph - 0.00 in   Clear
1:35 AM 62.6 °F 62.6 °F 100% 30.13 in 10.0 mi WSW 5.8 mph - 0.00 in   Clear
1:55 AM 62.6 °F 62.6 °F 100% 30.13 in 10.0 mi SW 5.8 mph - 0.00 in   Clear
2:15 AM 62.6 °F 62.6 °F 100% 30.13 in 10.0 mi SW 5.8 mph - 0.00 in   Clear
2:35 AM 64.4 °F 64.4 °F 100% 30.13 in 10.0 mi SW 6.9 mph - 0.00 in   Clear
2:55 AM 64.4 °F 64.4 °F 100% 30.13 in 9.0 mi SW 9.2 mph - 0.00 in   Partly Cloudy
3:15 AM 64.4 °F 64.4 °F 100% 30.13 in 8.0 mi SW 8.1 mph - 0.00 in   Scattered Clouds
3:35 AM 64.4 °F 64.4 °F 100% 30.13 in 8.0 mi SW 6.9 mph - 0.00 in   Scattered Clouds
3:55 AM 64.4 °F 64.4 °F 100% 30.13 in 10.0 mi Calm Calm - 0.00 in   Clear
4:15 AM 62.6 °F 62.6 °F 100% 30.13 in 10.0 mi SSW 4.6 mph - 0.00 in   Clear
4:35 AM 62.6 °F 62.6 °F 100% 30.13 in 10.0 mi SSW 8.1 mph - 0.00 in   Clear
4:55 AM 62.6 °F 62.6 °F 100% 30.13 in 7.0 mi SSW 4.6 mph - 0.00 in   Mostly Cloudy
5:15 AM 60.8 °F 60.8 °F 100% 30.14 in 2.0 mi SSW 4.6 mph - 0.00 in   Overcast
5:35 AM 60.8 °F 60.8 °F 100% 30.15 in 0.2 mi SSW 6.9 mph - 0.00 in Fog Fog
5:55 AM 60.8 °F 60.8 °F 100% 30.15 in 0.2 mi SSW 4.6 mph - 0.00 in Fog Fog
6:15 AM 60.8 °F 60.8 °F 100% 30.16 in 0.2 mi SSW 4.6 mph - 0.00 in Fog Fog
6:35 AM 57.2 °F 57.2 °F 100% 30.16 in 0.5 mi South 5.8 mph - 0.00 in Fog Fog
6:55 AM 57.2 °F 57.2 °F 100% 30.17 in 0.2 mi Calm Calm - 0.00 in Fog Fog
7:15 AM 57.2 °F 57.2 °F 100% 30.17 in 0.2 mi South 5.8 mph - 0.00 in Fog Fog
7:35 AM 57.2 °F 57.2 °F 100% 30.17 in 0.2 mi Calm Calm - 0.00 in Fog Fog
7:55 AM 57.2 °F 57.2 °F 100% 30.18 in 0.2 mi SSE 3.5 mph - 0.00 in Fog Fog
8:15 AM 57.2 °F 57.2 °F 100% 30.18 in 0.2 mi South 4.6 mph - 0.00 in Fog Fog
8:35 AM 60.8 °F 60.8 °F 100% 30.19 in 0.2 mi Calm Calm - 0.00 in Fog Fog
8:55 AM 62.6 °F 62.6 °F 100% 30.19 in 0.5 mi Calm Calm - 0.00 in Fog Fog
9:15 AM 62.6 °F 62.6 °F 100% 30.20 in 9.0 mi South 9.2 mph - 0.00 in   Mostly Cloudy
9:35 AM 64.4 °F 64.4 °F 100% 30.20 in 10.0 mi Calm Calm - 0.00 in   Clear
9:55 AM 66.2 °F 66.2 °F 100% 30.20 in 10.0 mi SSW 8.1 mph - 0.00 in   Clear
10:15 AM 68.0 °F 68.0 °F 100% 30.20 in 10.0 mi SSW 9.2 mph - 0.00 in   Clear
10:35 AM 71.6 °F 69.8 °F 94% 30.20 in 10.0 mi SSW 12.7 mph 17.3 mph 0.00 in   Clear
10:55 AM 71.6 °F 68.0 °F 88% 30.20 in 10.0 mi SSW 10.4 mph - 0.00 in   Clear
11:15 AM 71.6 °F 68.0 °F 88% 30.20 in 10.0 mi SSW 12.7 mph - 0.00 in   Clear
11:35 AM 73.4 °F 66.2 °F 78% 30.19 in 10.0 mi SSW 13.8 mph 19.6 mph 0.00 in   Clear
11:55 AM 73.4 °F 68.0 °F 83% 30.19 in 10.0 mi SSW 12.7 mph 19.6 mph 0.00 in   Clear
12:15 PM 75.2 °F 68.0 °F 78% 30.18 in 10.0 mi SSW 13.8 mph 21.9 mph 0.00 in   Clear
12:35 PM 75.2 °F 68.0 °F 78% 30.17 in 10.0 mi SSW 13.8 mph 24.2 mph 0.00 in   Clear
12:55 PM 75.2 °F 68.0 °F 78% 30.16 in 10.0 mi SSW 17.3 mph 20.7 mph 0.00 in   Clear
1:15 PM 75.2 °F 68.0 °F 78% 30.15 in 10.0 mi SW 12.7 mph 21.9 mph 0.00 in   Clear
1:35 PM 75.2 °F 68.0 °F 78% 30.14 in 10.0 mi SSW 15.0 mph 24.2 mph 0.00 in   Clear
1:55 PM 77.0 °F 68.0 °F 74% 30.13 in 10.0 mi SSW 10.4 mph 21.9 mph 0.00 in   Clear
2:15 PM 75.2 °F 66.2 °F 73% 30.13 in 10.0 mi SW 13.8 mph 26.5 mph 0.00 in   Clear
2:35 PM 77.0 °F 68.0 °F 74% 30.12 in 10.0 mi SSW 16.1 mph 21.9 mph 0.00 in   Clear
2:55 PM 75.2 °F 68.0 °F 78% 30.12 in 10.0 mi SW 16.1 mph 21.9 mph 0.00 in   Clear
3:15 PM 75.2 °F 66.2 °F 73% 30.12 in 10.0 mi SSW 15.0 mph 20.7 mph 0.00 in   Clear
3:35 PM 75.2 °F 66.2 °F 73% 30.12 in 10.0 mi SSW 10.4 mph 23.0 mph 0.00 in   Partly Cloudy
3:55 PM 73.4 °F 66.2 °F 78% 30.12 in 10.0 mi SSW 12.7 mph 18.4 mph 0.00 in   Clear
4:15 PM 71.6 °F 66.2 °F 83% 30.12 in 10.0 mi SSW 11.5 mph 16.1 mph 0.00 in   Clear
4:35 PM 71.6 °F 66.2 °F 83% 30.12 in 10.0 mi South 8.1 mph - 0.00 in   Clear
4:55 PM 69.8 °F 66.2 °F 88% 30.12 in 10.0 mi South 10.4 mph - 0.00 in   Clear
5:15 PM 69.8 °F 66.2 °F 88% 30.13 in 10.0 mi South 10.4 mph - 0.00 in   Clear
5:35 PM 68.0 °F 66.2 °F 94% 30.13 in 9.0 mi SSW 6.9 mph - 0.00 in   Clear
5:55 PM 66.2 °F 64.4 °F 94% 30.12 in 10.0 mi South 3.5 mph - 0.00 in   Partly Cloudy
6:15 PM 64.4 °F 64.4 °F 100% 30.13 in 10.0 mi South 5.8 mph - 0.00 in   Clear
6:35 PM 62.6 °F 62.6 °F 100% 30.12 in 7.0 mi Calm Calm - 0.00 in   Partly Cloudy
6:55 PM 62.6 °F 62.6 °F 100% 30.12 in 0.2 mi Calm Calm - 0.00 in Fog Fog
7:15 PM 62.6 °F 62.6 °F 100% 30.12 in 0.5 mi Calm Calm - 0.00 in Fog Fog
7:35 PM 60.8 °F 60.8 °F 100% 30.12 in 0.2 mi Calm Calm - 0.00 in Fog Fog
7:55 PM 60.8 °F 60.8 °F 100% 30.12 in 0.2 mi Calm Calm - 0.00 in Fog Fog
8:15 PM 60.8 °F 60.8 °F 100% 30.12 in 0.2 mi Calm Calm - 0.00 in Fog Fog
8:35 PM 60.8 °F 60.8 °F 100% 30.12 in 0.2 mi Calm Calm - 0.00 in Fog Fog
8:55 PM 60.8 °F 60.8 °F 100% 30.12 in 0.2 mi Calm Calm - 0.00 in Fog Fog
9:15 PM 60.8 °F 60.8 °F 100% 30.11 in 0.2 mi Calm Calm - 0.00 in Fog Fog
9:35 PM 60.8 °F 60.8 °F 100% 30.11 in 0.2 mi Calm Calm - 0.00 in Fog Fog
9:55 PM 62.6 °F 62.6 °F 100% 30.10 in 9.0 mi South 6.9 mph - 0.00 in   Mostly Cloudy
10:15 PM 62.6 °F 62.6 °F 100% 30.09 in 9.0 mi South 10.4 mph - 0.00 in   Partly Cloudy
10:35 PM 62.6 °F 62.6 °F 100% 30.09 in 9.0 mi South 11.5 mph - 0.00 in   Clear
10:55 PM 62.6 °F 62.6 °F 100% 30.08 in 8.0 mi South 11.5 mph - 0.00 in   Clear
11:15 PM 62.6 °F 62.6 °F 100% 30.08 in 8.0 mi South 10.4 mph - 0.00 in   Clear
11:35 PM 62.6 °F 62.6 °F 100% 30.08 in 8.0 mi South 9.2 mph - 0.00 in   Clear
11:55 PM 64.4 °F 64.4 °F 100% 30.07 in 8.0 mi South 11.5 mph - 0.00 in   Clear